Ohio State University, OH

9:50 PM EDT on March 26, 2017 (GMT -0400)
Ohio State University

Weather History for KOSU - August, 2014

Change the Weather History Date:

Sunday, August 3, 2014

  Actual Average Record
Temperature  
Mean Temperature 72 °F -  
Max Temperature 82 °F 81 °F 93 °F (2002)
Min Temperature 62 °F 62 °F 55 °F (1999)
Cooling Degree Days 7    
Growing Degree Days 22 (Base 50)    
Moisture  
Dew Point 61 °F    
Average Humidity 71    
Maximum Humidity 97    
Minimum Humidity 47    
Precipitation  
Precipitation 0.00 in - - ()
Sea Level Pressure  
Sea Level Pressure 30.11 in    
Wind  
Wind Speed 2 mph (NNW)    
Max Wind Speed 9 mph    
Max Gust Speed -    
Visibility 8 miles    
Events      
Averages and records for this station are not official NWS values.
T = Trace of Precipitation, MM = Missing Value Source: NWS Daily Summary

Daily Weather History Graph

Daily Weather History Graph

Search for Another Location

Airport or City:

Trip Planner

Search our weather history database for the weather conditions in past years. The results will help you decide how hot, cold, wet, or windy it might be!

Date:

Astronomy

Aug. 03, 2014 Rise Set
Actual Time 6:32 AM EDT 8:43 PM EDT
Civil Twilight 6:02 AM EDT 9:14 PM EDT
Nautical Twilight 5:25 AM EDT 9:50 PM EDT
Astronomical Twilight 4:44 AM EDT 10:31 PM EDT
Moon 1:52 PM EDT (8/3) 12:02 AM EDT (8/3)
Length of Visible Light 15h 11m
Length of Day
14h 11m
Waxing Crescent, 46% of the Moon is Illuminated
Aug 3
Waxing Crescent
Aug 3
First Quarter
Aug 10
Full
Aug 17
Last Quarter
Aug 25
New

Hourly Weather History & Observations

Time (EDT) Temp. Heat Index Dew Point Humidity Pressure Visibility Wind Dir Wind Speed Gust Speed Precip Events Conditions
12:53 AM 63.0 °F - 62.1 °F 97% 30.10 in 5.0 mi Calm Calm - N/A   Clear
1:53 AM 63.0 °F - 61.0 °F 93% 30.11 in 5.0 mi Calm Calm - N/A   Mostly Cloudy
2:53 AM 63.0 °F - 61.0 °F 93% 30.11 in 5.0 mi North 3.5 mph - N/A   Partly Cloudy
4:53 AM 63.0 °F - 61.0 °F 93% 30.10 in 5.0 mi Calm Calm - N/A   Clear
5:53 AM 62.1 °F - 60.1 °F 93% 30.10 in 4.0 mi Calm Calm - N/A   Clear
6:53 AM 62.1 °F - 60.1 °F 93% 30.12 in 3.0 mi Calm Calm - N/A   Clear
7:53 AM 64.0 °F - 61.0 °F 90% 30.13 in 5.0 mi Calm Calm - N/A   Clear
8:53 AM 66.9 °F - 62.1 °F 84% 30.14 in 5.0 mi North 3.5 mph - N/A   Haze
9:53 AM 70.0 °F - 63.0 °F 78% 30.14 in 8.0 mi Calm Calm - N/A   Clear
10:53 AM 75.0 °F - 59.0 °F 57% 30.14 in 10.0 mi NNE 6.9 mph - N/A   Partly Cloudy
11:53 AM 77.0 °F - 61.0 °F 58% 30.14 in 10.0 mi Variable 4.6 mph - N/A   Scattered Clouds
12:53 PM 77.0 °F - 61.0 °F 58% 30.13 in 10.0 mi NNW 9.2 mph - N/A   Mostly Cloudy
1:53 PM 79.0 °F - 61.0 °F 54% 30.12 in 10.0 mi WNW 5.8 mph - N/A   Mostly Cloudy
2:53 PM 79.0 °F - 61.0 °F 54% 30.11 in 10.0 mi NNE 9.2 mph - N/A   Mostly Cloudy
3:53 PM 81.0 °F 81.6 °F 60.1 °F 49% 30.09 in 10.0 mi Calm Calm - N/A   Scattered Clouds
4:53 PM 82.0 °F 82.4 °F 60.1 °F 47% 30.07 in 10.0 mi Variable 6.9 mph - N/A   Scattered Clouds
5:53 PM 81.0 °F 81.3 °F 59.0 °F 47% 30.06 in 9.0 mi WNW 6.9 mph - N/A   Partly Cloudy
6:53 PM 79.0 °F - 60.1 °F 52% 30.06 in 9.0 mi NNW 4.6 mph - N/A   Clear
7:53 PM 77.0 °F - 61.0 °F 58% 30.08 in 9.0 mi NNW 6.9 mph - N/A   Clear
8:53 PM 75.9 °F - 60.1 °F 58% 30.08 in 6.0 mi NNW 3.5 mph - N/A   Haze
10:53 PM 70.0 °F - 61.0 °F 73% 30.10 in 9.0 mi Calm Calm - 0.00 in   Clear
11:53 PM 66.9 °F - 62.1 °F 84% 30.10 in 7.0 mi West 3.5 mph - N/A   Clear